Location: Eaton
(41.3139°N, 82.0207°W)
Time: 16:52:46
(UTC+00:00)

Cosmos 1898 Rocket - Pass Details

Date: 17 June 2021
Orbit: 754 x 783 km, 74.0° (Epoch: 01 August)

Event Time Altitude Azimuth Distance (km) Brightness Sun altitude
Rises 07:18:03 0° 336° (NNW) 3,245 7.3 -20.5°
Reaches altitude 10° 07:20:28 10° 333° (NNW) 2,310 6.4 -20.3°
Maximum altitude 07:25:36 58° 255° (WSW) 882 3.5 -19.9°
Enters shadow 07:27:14 40° 198° (SSW) 1,113 3.8 -19.7°
